Date,TemperatureHighF,TemperatureAvgF,TemperatureLowF,DewpointHighF,DewpointAvgF,DewpointLowF,HumidityHigh,HumidityAvg,HumidityLow,PressureMaxIn,PressureMinIn,WindSpeedMaxMPH,WindSpeedAvgMPH,GustSpeedMaxMPH,PrecipitationSumIn
2013-2-1,68.0,50.6,36.0,49.0,44.1,35.0,97,81,47,30.22,30.10,1,0,5,0.00
2013-2-2,65.0,50.2,42.0,48.0,43.8,40.0,95,81,51,30.28,30.18,2,0,6,0.01
2013-2-3,63.0,48.5,39.0,50.0,43.5,38.0,97,84,55,30.23,30.09,2,0,5,0.01
2013-2-4,64.0,49.8,38.0,50.0,44.1,37.0,97,82,57,30.17,30.03,3,0,7,0.01
2013-2-5,59.0,47.3,39.0,47.0,42.6,38.0,95,85,63,30.11,30.03,4,1,10,0.01
2013-2-6,62.0,47.5,38.0,45.0,40.4,37.0,97,79,43,30.18,30.09,3,1,8,0.01
2013-2-7,58.0,46.7,40.0,47.0,39.8,35.0,94,79,47,30.15,29.98,6,2,14,0.01
2013-2-8,57.0,45.7,36.0,42.0,35.1,30.0,95,70,39,30.00,29.90,6,1,13,0.01
2013-2-9,57.0,44.6,34.0,34.0,31.0,28.0,83,61,36,30.09,29.95,4,1,10,0.00
2013-2-10,60.0,45.0,32.0,40.0,35.3,30.0,94,72,43,30.13,29.98,5,0,13,0.00
2013-2-11,61.0,46.1,33.0,38.0,34.3,30.0,91,67,35,30.23,30.05,3,0,6,0.00
2013-2-12,63.0,47.7,36.0,40.0,36.8,33.0,91,68,41,30.37,30.22,2,0,4,0.00
2013-2-13,65.0,49.0,36.0,44.0,39.2,34.0,92,71,43,30.33,30.18,2,0,6,0.00
2013-2-14,67.0,50.8,37.0,47.0,41.5,35.0,94,73,43,30.25,30.14,3,1,7,0.00
2013-2-15,72.0,54.1,39.0,47.0,43.5,37.0,95,71,37,30.29,30.19,2,0,5,0.00
2013-2-16,70.0,52.8,41.0,46.0,42.2,39.0,93,70,38,30.24,30.01,3,0,7,0.00
2013-2-17,67.0,51.5,39.0,45.0,41.0,37.0,94,70,40,30.03,29.92,3,0,8,0.00
2013-2-18,59.0,47.5,38.0,46.0,40.4,36.0,93,77,60,30.01,29.90,8,3,17,0.00
2013-2-19,47.0,42.7,37.0,42.0,38.1,34.0,91,84,75,29.91,29.72,7,2,15,0.31
2013-2-20,60.0,44.7,32.0,41.0,33.8,31.0,96,70,35,30.01,29.81,5,1,14,0.01
2013-2-21,61.0,47.0,36.0,41.0,34.9,30.0,93,66,31,30.14,30.01,6,1,13,0.01
2013-2-22,64.0,49.2,35.0,41.0,37.0,32.0,89,65,37,30.24,30.13,4,1,10,0.00
2013-2-23,60.0,50.9,43.0,43.0,34.4,26.0,92,57,28,30.22,30.11,8,2,19,0.00
2013-2-24,64.0,49.8,37.0,33.0,28.5,25.0,70,46,24,30.22,30.14,6,2,16,0.00
2013-2-25,63.0,50.0,37.0,42.0,35.8,32.0,85,60,35,30.27,30.14,4,1,11,0.00
2013-2-26,67.0,52.2,40.0,34.0,30.6,25.0,78,47,23,30.20,30.08,9,2,19,0.00
2013-2-27,71.0,51.8,35.0,41.0,34.7,29.0,83,55,27,30.33,30.17,3,1,8,0.00
2013-2-28,72.0,56.8,42.0,44.0,40.8,37.0,82,58,33,30.43,30.33,4,0,8,0.00